Location: Unspecified
(0.0000°N, 0.0000°E)
Time: 01:15:38
(UTC+00:00)

Tiros 1 - Visible Passes

Search period start: 20 July 2019 00:00
Search period end: 30 July 2019 00:00
Orbit: 630 x 664 km, 48.4° (Epoch: 19 July)

Date Brightness Start Highest point End Pass type
(mag) Time Alt. Az. Time Alt. Az. Time Alt. Az.
20 Jul 10.2 20:50:41 10° NNW 20:50:43 10° NNW 20:50:43 10° NNW visible
21 Jul 9.3 19:36:50 10° NNE 19:38:18 13° NE 19:38:18 13° NE visible
22 Jul 8.4 20:00:45 10° NNW 20:03:39 32° N 20:03:39 32° N visible
23 Jul 9.3 18:47:22 10° NNE 18:49:08 12° NE 18:50:54 10° ENE visible
23 Jul 9.0 20:26:38 10° NW 20:29:06 29° WNW 20:29:06 29° WNW visible
24 Jul 7.8 19:10:51 10° NNW 19:15:14 38° NE 19:16:54 28° E visible
24 Jul 10.2 20:54:17 10° W 20:54:36 11° W 20:54:36 11° W visible
25 Jul 7.4 19:36:35 10° NW 19:41:14 62° SW 19:42:28 44° S visible
26 Jul 9.2 20:03:58 10° W 20:07:16 19° SW 20:08:05 18° SW visible
27 Jul 7.4 18:46:32 10° NW 18:51:15 70° SW 18:55:55 10° SSE visible
28 Jul 9.6 05:19:09 10° S 05:22:07 17° SE 05:25:06 10° E visible
28 Jul 9.3 19:13:41 10° W 19:17:16 21° SW 19:20:50 10° S visible
